Ogden, UT

10:29 PM MDT on August 24, 2016 (GMT -0600)
Ogden-Hinckley

Weather History for KOGD - February, 2013

Change the Weather History Date:

Saturday, February 16, 2013

  Actual Average Record
Temperature  
Mean Temperature 28 °F -  
Max Temperature 34 °F 42 °F 60 °F (1947)
Min Temperature 21 °F 24 °F 1 °F (1966)
Degree Days  
Heating Degree Days 38    
Moisture  
Dew Point 20 °F    
Average Humidity 74    
Maximum Humidity 81    
Minimum Humidity 66    
Precipitation  
Precipitation 0.00 in - - ()
Sea Level Pressure  
Sea Level Pressure 30.34 in    
Wind  
Wind Speed 5 mph (SW)    
Max Wind Speed 9 mph    
Max Gust Speed -    
Visibility 7 miles    
Events      
Averages and records for this station are not official NWS values.
T = Trace of Precipitation, MM = Missing Value Source: NWS Daily Summary

Daily Weather History Graph

Daily Weather History Graph

Search for Another Location

Airport or City:

Trip Planner

Search our weather history database for the weather conditions in past years. The results will help you decide how hot, cold, wet, or windy it might be!

Date:

Astronomy

Feb. 16, 2013 Rise Set
Actual Time 7:20 AM MST 6:03 PM MST
Civil Twilight 6:52 AM MST 6:32 PM MST
Nautical Twilight 6:20 AM MST 7:04 PM MST
Astronomical Twilight 5:48 AM MST 7:36 PM MST
Moon 10:31 AM MST (2/16) 12:11 AM MST (2/16)
Length of Visible Light 11h 39m
Length of Day
10h 42m
Waxing Crescent, 40% of the Moon is Illuminated
Feb 16
Waxing Crescent
Feb 17
First Quarter
Feb 25
Full
Mar 4
Last Quarter
Mar 11
New

Hourly Weather History & Observations

Time (MST) Temp. Windchill Dew Point Humidity Pressure Visibility Wind Dir Wind Speed Gust Speed Precip Events Conditions
12:53 AM 25.0 °F 17.1 °F 19.0 °F 78% 30.51 in 10.0 mi South 6.9 mph - N/A   Clear
1:53 AM 25.0 °F 17.1 °F 19.0 °F 78% 30.52 in 10.0 mi South 6.9 mph - N/A   Clear
2:53 AM 26.1 °F 20.5 °F 18.0 °F 71% 30.50 in 10.0 mi South 4.6 mph - N/A   Clear
3:53 AM 24.1 °F 18.2 °F 17.1 °F 75% 30.49 in 10.0 mi South 4.6 mph - N/A   Clear
4:53 AM 23.0 °F 15.8 °F 17.1 °F 78% 30.49 in 10.0 mi South 5.8 mph - N/A   Clear
5:53 AM 21.9 °F 12.5 °F 16.0 °F 78% 30.49 in 10.0 mi SSE 8.1 mph - N/A   Clear
6:53 AM 21.9 °F 12.5 °F 16.0 °F 78% 30.48 in 10.0 mi South 8.1 mph - N/A   Clear
7:53 AM 21.9 °F 11.7 °F 16.0 °F 78% 30.47 in 9.0 mi South 9.2 mph - N/A   Clear
8:53 AM 27.0 °F - 18.0 °F 69% 30.46 in 10.0 mi Calm Calm - N/A   Clear
9:53 AM 30.0 °F 25.2 °F 21.0 °F 69% 30.44 in 9.0 mi South 4.6 mph - N/A   Clear
10:53 AM 30.9 °F 27.5 °F 21.0 °F 67% 30.43 in 7.0 mi North 3.5 mph - N/A   Clear
11:53 AM 32.0 °F - 21.9 °F 66% 30.40 in 5.0 mi Calm Calm - N/A   Haze
12:53 PM 30.9 °F 26.2 °F 24.1 °F 76% 30.38 in 4.0 mi NW 4.6 mph - N/A   Haze
1:53 PM 34.0 °F 29.8 °F 24.1 °F 67% 30.32 in 5.0 mi NNW 4.6 mph - N/A   Haze
2:53 PM 34.0 °F 31.0 °F 24.1 °F 67% 30.28 in 5.0 mi NW 3.5 mph - N/A   Haze
3:53 PM 34.0 °F 27.2 °F 25.0 °F 70% 30.26 in 4.0 mi NW 8.1 mph - N/A   Haze
4:53 PM 32.0 °F 26.4 °F 23.0 °F 69% 30.24 in 4.0 mi NW 5.8 mph - N/A   Haze
5:53 PM 28.9 °F 25.2 °F 23.0 °F 78% 30.23 in 3.0 mi NW 3.5 mph - N/A   Haze
6:53 PM 30.0 °F - 21.9 °F 72% 30.20 in 6.0 mi Calm Calm - N/A   Haze
7:53 PM 28.9 °F - 21.0 °F 72% 30.19 in 7.0 mi Calm Calm - N/A   Clear
8:53 PM 27.0 °F - 21.0 °F 78% 30.16 in 7.0 mi Calm Calm - N/A   Clear
9:53 PM 25.0 °F - 19.9 °F 81% 30.14 in 5.0 mi Calm Calm - N/A   Haze
10:53 PM 27.0 °F - 21.0 °F 78% 30.10 in 5.0 mi Calm Calm - N/A   Haze
11:53 PM 27.0 °F 23.0 °F 21.0 °F 78% 30.05 in 5.0 mi South 3.5 mph - N/A   Haze